WA4FG Weather Reports


Display with metric or nautical units.
time (UTC)temp
F
wind
direction
speed
MPH
gust
MPH
rain 1hr
in
rain 24hr
in
rain mn
in
humidity
%
barometer
mb
20260831151544 87 326 0.0 0.0 0.00 0.00 0.00 70 1020.5
20260831151025 87 236 0.0 0.0 0.00 0.00 0.00 75 1020.5
20260831150524 87 236 0.0 0.0 0.00 0.00 0.00 71 1020.5
20260831150018 87 245 0.0 0.0 0.00 0.00 0.00 72 1020.5
20260831145520 86 245 0.0 0.0 0.00 0.00 0.00 73 1020.5
20260831144956 86 245 0.0 0.0 0.00 0.00 0.00 75 1020.6
20260831143954 84 245 0.0 0.0 0.00 0.00 0.00 77 1020.6
20260831142402 82 245 0.0 0.0 0.00 0.00 0.00 83 1020.5
20260831141901 81 245 0.0 0.0 0.00 0.00 0.00 84 1020.6
20260831140326 79 245 0.0 0.0 0.00 0.00 0.00 90 1020.7
20260831135822 79 245 0.0 0.0 0.00 0.00 0.00 92 1020.7
20260831134730 77 245 0.0 0.0 0.00 0.00 0.00 96 1020.7
20260831134226 76 246 0.0 0.0 0.00 0.00 0.00 97 1020.7
20260831133715 76 246 0.0 0.0 0.00 0.00 0.00 98 1020.8
20260831133214 76 246 0.0 0.0 0.00 0.00 0.00 98 1020.7
20260831132646 75 246 0.0 0.0 0.00 0.00 0.00 100 1020.7
20260831132143 75 246 0.0 0.0 0.00 0.00 0.00 100 1020.7
20260831131617 75 246 0.0 0.0 0.00 0.00 0.00 100 1020.7
20260831131050 75 246 0.0 0.0 0.00 0.00 0.00 100 1020.6
20260831130037 74 246 0.0 0.0 0.00 0.00 0.00 100 1020.7
20260831124942 74 246 0.0 0.0 0.00 0.00 0.00 100 1020.4
20260831124438 73 246 0.0 0.0 0.00 0.00 0.00 100 1020.5
20260831123936 73 246 0.0 0.0 0.00 0.00 0.00 100 1020.4
20260831123426 73 246 0.0 0.0 0.00 0.00 0.00 100 1020.3
20260831122420 73 246 0.0 0.0 0.00 0.00 0.00 100 1020.2
20260831121916 73 246 0.0 0.0 0.00 0.00 0.00 100 1020.1
20260831121403 73 246 0.0 0.0 0.00 0.00 0.00 100 1019.9
20260831120911 73 246 0.0 0.0 0.00 0.00 0.00 100 1019.8
20260831115857 72 246 0.0 0.0 0.00 0.00 0.00 100 1019.7
20260831114805 72 246 0.0 0.0 0.00 0.00 0.00 100 1019.5
20260831114241 72 246 0.0 0.0 0.00 0.00 0.00 100 1019.6
20260831113713 72 246 0.0 0.0 0.00 0.00 0.00 100 1019.5
20260831112145 72 246 0.0 0.0 0.00 0.00 0.00 100 1019.4
20260831111617 72 246 0.0 0.0 0.00 0.00 0.00 99 1019.3
20260831110549 73 246 0.0 0.0 0.00 0.00 0.00 99 1019.2
20260831110040 73 246 0.0 0.0 0.00 0.00 0.00 99 1019.1
20260831105537 73 246 0.0 0.0 0.00 0.00 0.00 99 1019.1
20260831105020 73 246 0.0 0.0 0.00 0.00 0.00 99 1019.1
20260831104518 73 246 0.0 0.0 0.00 0.00 0.00 99 1019.0
20260831104016 73 246 0.0 0.0 0.00 0.00 0.00 99 1019.0
20260831103451 73 246 0.0 0.0 0.00 0.00 0.00 99 1019.0
20260831101905 73 246 0.0 0.0 0.00 0.00 0.00 99 1018.8
20260831101345 73 246 0.0 0.0 0.00 0.00 0.00 99 1018.9
20260831100837 73 246 0.0 0.0 0.00 0.00 0.00 99 1018.9
20260831100347 73 246 0.0 0.0 0.00 0.00 0.00 99 1018.9
20260831095726 73 246 0.0 0.0 0.00 0.00 0.00 99 1018.8
20260831095225 73 246 0.0 0.0 0.00 0.00 0.00 99 1018.8
20260831094722 73 246 0.0 0.0 0.00 0.00 0.00 99 1018.8
20260831093215 73 246 0.0 0.0 0.00 0.00 0.00 99 1018.8
20260831092646 73 246 0.0 0.0 0.00 0.00 0.00 98 1018.7
20260831091644 73 246 0.0 0.0 0.00 0.00 0.00 98 1018.6
20260831091117 73 246 0.0 0.0 0.00 0.00 0.00 98 1018.7
20260831090115 73 246 0.0 0.0 0.00 0.00 0.00 98 1018.6
20260831085015 73 246 0.0 0.0 0.00 0.00 0.00 98 1018.5
20260831084511 73 246 0.0 0.0 0.00 0.00 0.00 98 1018.4
20260831084012 73 246 0.0 0.0 0.00 0.00 0.00 98 1018.4
20260831083459 73 246 0.0 0.0 0.00 0.00 0.00 98 1018.4
20260831082958 74 246 0.0 0.0 0.00 0.00 0.00 98 1018.3
20260831081907 74 246 0.0 0.0 0.00 0.00 0.00 98 1018.2
20260831081405 74 246 0.0 0.0 0.00 0.00 0.00 97 1018.2
20260831080905 74 246 0.0 0.0 0.00 0.00 0.00 98 1018.2
20260831075902 74 243 0.0 0.0 0.00 0.00 0.00 97 1018.3
20260831074828 74 243 0.0 0.0 0.00 0.00 0.00 97 1018.1
20260831074325 74 243 0.0 0.0 0.00 0.00 0.00 97 1018.1
20260831073821 74 242 0.0 0.0 0.00 0.00 0.00 97 1018.0
20260831073257 74 243 0.0 0.0 0.00 0.00 0.00 97 1018.0
20260831072727 74 242 0.0 0.0 0.00 0.00 0.00 97 1018.1
20260831072209 74 242 0.0 0.0 0.00 0.00 0.00 97 1018.1
20260831071644 74 243 0.0 0.0 0.00 0.00 0.00 97 1018.1
20260831071119 74 242 0.0 0.0 0.00 0.00 0.00 97 1018.1
20260831070615 74 242 0.0 0.0 0.00 0.00 0.00 97 1018.1
20260831065552 75 242 0.0 0.0 0.00 0.00 0.00 96 1018.1
20260831065019 75 242 0.0 0.0 0.00 0.00 0.00 96 1018.1
20260831063517 75 243 0.0 0.0 0.00 0.00 0.00 96 1018.2
20260831063016 75 242 0.0 0.0 0.00 0.00 0.00 96 1018.2
20260831062513 75 242 0.0 0.0 0.00 0.00 0.00 96 1018.2
20260831062011 75 242 0.0 0.0 0.00 0.00 0.00 96 1018.3
20260831061509 75 242 0.0 0.0 0.00 0.00 0.00 95 1018.3
20260831060940 75 242 0.0 0.0 0.00 0.00 0.00 95 1018.2
20260831060437 75 242 0.0 0.0 0.00 0.00 0.00 95 1018.2
20260831055911 75 243 0.0 0.0 0.00 0.00 0.00 95 1018.3
20260831055404 75 242 0.0 0.0 0.00 0.00 0.00 95 1018.3
20260831054902 75 242 0.0 0.0 0.00 0.00 0.00 95 1018.3
20260831054402 75 242 0.0 0.0 0.00 0.00 0.00 95 1018.3
20260831053830 75 242 0.0 0.0 0.00 0.00 0.00 95 1018.4
20260831052818 75 242 0.0 0.0 0.00 0.00 0.00 94 1018.3
20260831052327 75 242 0.0 0.0 0.00 0.00 0.00 94 1018.3
20260831051301 75 242 0.0 0.0 0.00 0.00 0.00 94 1018.4
20260831050759 75 242 0.0 0.0 0.00 0.00 0.00 94 1018.4
20260831050301 76 243 0.0 0.0 0.00 0.00 0.00 94 1018.4
20260831045740 76 242 0.0 0.0 0.00 0.00 0.00 93 1018.5
20260831045213 76 243 0.0 0.0 0.00 0.00 0.00 93 1018.5
20260831044212 76 243 0.0 0.0 0.00 0.00 0.00 93 1018.5
20260831043643 76 242 0.0 0.0 0.00 0.00 0.00 93 1018.4
20260831043116 76 243 0.0 0.0 0.00 0.00 0.00 93 1018.4
20260831042101 76 242 0.0 0.0 0.00 0.00 0.00 92 1018.4
20260831041601 76 243 0.0 0.0 0.00 0.00 0.00 92 1018.4
20260831040508 76 243 0.0 0.0 0.00 0.00 0.00 92 1018.4
20260831040006 76 242 0.0 0.0 0.00 0.00 0.00 92 1018.3
20260831035438 76 242 0.0 0.0 0.00 0.00 0.00 91 1018.3
20260831034937 76 242 0.0 0.0 0.00 0.00 0.00 91 1018.4
20260831034420 77 243 0.0 0.0 0.00 0.00 0.00 91 1018.3
20260831033919 77 243 0.0 0.0 0.00 0.00 0.00 91 1018.4
20260831033416 77 242 0.0 0.0 0.00 0.00 0.00 91 1018.4
20260831032913 77 242 0.0 0.0 0.00 0.00 0.00 91 1018.4
20260831032409 77 242 0.0 0.0 0.00 0.00 0.00 91 1018.5
20260831031907 77 243 0.0 0.0 0.00 0.00 0.00 91 1018.4
20260831030813 77 243 0.0 0.0 0.00 0.00 0.00 90 1018.4
20260831030322 78 243 0.0 0.0 0.00 0.00 0.00 90 1018.3
20260831025807 78 243 0.0 0.0 0.00 0.00 0.00 90 1018.2
20260831025306 78 243 0.0 0.0 0.00 0.00 0.00 89 1018.3
20260831024803 78 242 0.0 0.0 0.00 0.00 0.00 89 1018.2
20260831024231 78 243 0.0 0.0 0.00 0.00 0.00 89 1018.2
20260831023705 78 243 0.0 0.0 0.00 0.00 0.00 88 1018.3
20260831023139 78 243 0.0 0.0 0.00 0.00 0.00 87 1018.3
20260831022613 78 242 0.0 0.0 0.00 0.00 0.00 87 1018.3
20260831022110 78 243 0.0 0.0 0.00 0.00 0.00 87 1018.4
20260831021054 79 243 0.0 0.0 0.00 0.00 0.00 86 1018.3
20260831020602 79 242 0.0 0.0 0.00 0.00 0.00 86 1018.3
20260831020051 79 242 0.0 0.0 0.00 0.00 0.00 85 1018.2
20260831015534 79 242 0.0 0.0 0.00 0.00 0.00 85 1018.0
20260831015008 79 242 0.0 0.0 0.00 0.00 0.00 84 1018.0
20260831014506 79 243 0.0 0.0 0.00 0.00 0.00 84 1018.0
20260831013939 80 243 0.0 0.0 0.00 0.00 0.00 84 1018.0
20260831013436 80 242 0.0 0.0 0.00 0.00 0.00 83 1018.0
20260831012931 80 242 0.0 0.0 0.00 0.00 0.00 83 1018.0
20260831012404 80 242 0.0 0.0 0.00 0.00 0.00 83 1017.7
20260831011900 80 242 0.0 0.0 0.00 0.00 0.00 82 1017.8
20260831011338 80 242 0.0 0.0 0.00 0.00 0.00 83 1017.7
20260831010839 81 242 0.0 0.0 0.00 0.00 0.00 82 1017.6
20260831005745 81 243 0.0 0.0 0.00 0.00 0.00 81 1017.5
20260831004743 82 242 0.0 0.0 0.00 0.00 0.00 79 1017.5
20260831004243 82 243 0.0 0.0 0.00 0.00 0.00 79 1017.4
20260831003744 82 242 0.0 0.0 0.00 0.00 0.00 78 1017.4
20260831003240 82 243 0.0 0.0 0.00 0.00 0.00 78 1017.3
20260831002737 83 242 0.0 0.0 0.00 0.00 0.00 78 1017.3
20260831001644 84 242 0.0 0.0 0.00 0.00 0.00 76 1017.3
20260831001140 84 242 0.0 0.0 0.00 0.00 0.00 75 1017.3
20260831000612 84 242 0.0 0.0 0.00 0.00 0.00 74 1017.2
20260831000107 85 242 0.0 0.0 0.00 0.00 0.00 72 1017.2
20260830235557 85 243 0.0 0.0 0.00 0.00 0.00 72 1017.3
20260830234526 86 242 0.0 0.0 0.00 0.00 0.00 71 1017.2
20260830234025 86 242 0.0 0.0 0.00 0.00 0.00 71 1017.2
20260830233516 86 242 0.0 0.0 0.00 0.00 0.00 68 1017.2
20260830232952 87 243 0.0 0.0 0.00 0.00 0.00 67 1017.1
20260830232455 87 242 0.0 0.0 0.00 0.00 0.00 65 1017.1
20260830231928 87 242 0.0 0.0 0.00 0.00 0.00 63 1017.2
20260830231429 88 245 0.0 0.0 0.00 0.00 0.00 66 1017.1
20260830230915 88 245 0.0 0.0 0.00 0.00 0.00 65 1017.1
20260830230413 88 245 0.0 1.0 0.00 0.00 0.00 62 1017.1
20260830225913 88 245 0.0 1.0 0.00 0.00 0.00 61 1017.0
20260830225414 89 170 0.0 1.0 0.00 0.00 0.00 69 1017.0
20260830224851 89 170 0.0 1.0 0.00 0.00 0.00 64 1017.0
20260830223307 90 169 0.0 1.0 0.00 0.00 0.00 61 1016.9
20260830222249 89 315 0.0 1.0 0.00 0.00 0.00 61 1016.9
20260830221747 90 261 0.0 1.0 0.00 0.00 0.00 57 1016.9
20260830221223 90 210 0.0 5.0 0.00 0.00 0.00 61 1016.9
20260830220709 90 209 0.0 5.0 0.00 0.00 0.00 58 1016.9
20260830215157 90 67 0.0 5.0 0.00 0.00 0.00 59 1017.0
20260830213653 90 219 0.0 4.0 0.00 0.00 0.00 58 1017.0
20260830213151 90 159 0.0 1.0 0.00 0.00 0.00 59 1017.1
20260830212647 90 157 0.0 0.0 0.00 0.00 0.00 59 1017.1
20260830212146 90 157 0.0 1.0 0.00 0.00 0.00 60 1017.1
20260830211622 90 159 0.0 1.0 0.00 0.00 0.00 60 1017.1
20260830211059 90 198 0.0 1.0 0.00 0.00 0.00 61 1017.2
20260830210557 90 196 0.0 1.0 0.00 0.00 0.00 61 1017.2
20260830210110 91 196 0.0 4.0 0.00 0.00 0.00 59 1017.2
20260830205531 91 252 0.0 4.0 0.00 0.00 0.00 58 1017.2
20260830205028 91 178 0.0 0.0 0.00 0.00 0.00 60 1017.3
20260830203955 91 178 0.0 6.0 0.00 0.00 0.00 58 1017.5
20260830203438 90 194 1.0 6.0 0.00 0.00 0.00 57 1017.5
20260830202929 90 219 1.0 8.0 0.00 0.00 0.00 58 1017.6
20260830202429 90 188 1.0 8.0 0.00 0.00 0.00 58 1017.6
20260830201939 90 250 0.0 5.0 0.00 0.00 0.00 59 1017.7
20260830201416 90 186 0.0 5.0 0.00 0.00 0.00 59 1017.7
20260830200913 90 182 0.0 1.0 0.00 0.00 0.00 59 1017.8
20260830200428 91 180 0.0 1.0 0.00 0.00 0.00 59 1017.8
20260830195907 91 180 0.0 1.0 0.00 0.00 0.00 59 1017.8
20260830195407 91 324 0.0 1.0 0.00 0.00 0.00 59 1017.9
20260830194903 91 203 0.0 1.0 0.00 0.00 0.00 61 1018.1
20260830194401 91 204 0.0 1.0 0.00 0.00 0.00 60 1018.2
20260830193841 90 171 0.0 0.0 0.00 0.00 0.00 62 1018.2
20260830193339 89 171 0.0 1.0 0.00 0.00 0.00 66 1018.3
20260830192837 90 173 0.0 1.0 0.00 0.00 0.00 66 1018.4
20260830191827 90 174 0.0 1.0 0.00 0.00 0.00 61 1018.4
20260830191311 91 173 0.0 1.0 0.00 0.00 0.00 61 1018.4
20260830190809 92 173 0.0 1.0 0.00 0.00 0.00 58 1018.5
20260830190316 92 173 0.0 1.0 0.00 0.00 0.00 58 1018.4
20260830185812 92 126 0.0 4.0 0.00 0.00 0.00 58 1018.5
20260830185252 91 153 0.0 4.0 0.00 0.00 0.00 60 1018.6
20260830184713 91 152 0.0 3.0 0.00 0.00 0.00 59 1018.8
20260830184210 91 148 0.0 1.0 0.00 0.00 0.00 58 1018.7
20260830183703 91 117 0.0 5.0 0.00 0.00 0.00 61 1018.7
20260830183214 91 102 0.0 5.0 0.00 0.00 0.00 59 1018.9
20260830182657 91 101 1.0 7.0 0.00 0.00 0.00 60 1019.0
20260830182136 91 330 1.0 7.0 0.00 0.00 0.00 59 1019.1
20260830181625 91 179 1.0 7.0 0.00 0.00 0.00 59 1019.2
20260830181122 91 121 0.0 6.0 0.00 0.00 0.00 59 1019.3
20260830180556 91 217 0.0 1.0 0.00 0.00 0.00 60 1019.4
20260830175549 91 163 0.0 1.0 0.00 0.00 0.00 60 1019.5
20260830175039 90 76 0.0 0.0 0.00 0.00 0.00 62 1019.5
20260830174537 90 30 0.0 1.0 0.00 0.00 0.00 62 1019.6
20260830174009 89 294 0.0 4.0 0.00 0.00 0.00 65 1019.8
20260830173506 89 189 0.0 4.0 0.00 0.00 0.00 64 1019.8
20260830172938 89 171 0.0 4.0 0.00 0.00 0.00 63 1019.9
20260830172435 90 89 0.0 4.0 0.00 0.00 0.00 64 1019.9
20260830171915 89 219 0.0 5.0 0.00 0.00 0.00 63 1020.0
20260830171411 89 215 0.0 5.0 0.00 0.00 0.00 64 1020.1
20260830170910 88 268 0.0 4.0 0.00 0.00 0.00 65 1020.1
20260830170418 88 163 0.0 4.0 0.00 0.00 0.00 68 1020.2
20260830165839 88 78 0.0 6.0 0.00 0.00 0.00 67 1020.2
20260830165334 88 220 0.0 6.0 0.00 0.00 0.00 65 1020.3
20260830164826 88 0 0.0 5.0 0.00 0.00 0.00 67 1020.2
20260830164301 87 163 0.0 5.0 0.00 0.00 0.00 70 1020.3
20260830163734 86 215 0.0 4.0 0.00 0.00 0.00 71 1020.4
20260830162715 86 195 0.0 6.0 0.00 0.00 0.00 70 1020.5
20260830162229 87 200 1.0 7.0 0.00 0.00 0.00 70 1020.6
20260830161713 86 175 1.0 7.0 0.00 0.00 0.00 71 1020.6
20260830161210 86 237 0.0 5.0 0.00 0.00 0.00 71 1020.7
20260830160644 86 113 0.0 1.0 0.00 0.00 0.00 74 1020.7
20260830160121 85 175 0.0 1.0 0.00 0.00 0.00 74 1020.8
20260830155620 85 171 0.0 1.0 0.00 0.00 0.00 75 1020.8
20260830155121 85 171 0.0 1.0 0.00 0.00 0.00 74 1020.9
20260830154622 85 230 1.0 5.0 0.00 0.00 0.00 73 1020.9
20260830154119 85 230 1.0 5.0 0.00 0.00 0.00 71 1020.9
20260830153614 85 203 0.0 5.0 0.00 0.00 0.00 77 1020.8
20260830153048 84 205 1.0 5.0 0.00 0.00 0.00 76 1020.9
20260830152523 84 202 0.0 2.0 0.00 0.00 0.00 76 1020.8